COSMOS 2251 DEB, 34118

Orbit data source: Space-Track

COSMOS 2251 DEB, 34118 is space debris in LEO originally from a launch on Wed, 16 Jun 1993 UTC launched from the Plesetsk Missile And Space Complex (PKMTR). The debris from Iridium 33, an American commercial communications satellite, has been tracked extensively since its accidental collision with the defunct Russian satellite Cosmos 2251 in 2009. This event, occurring at high speed in low Earth orbit (LEO), generated thousands of pieces of space debris, significantly increasing the risk of further collisions. The Iridium 33 debris cloud has impacted space traffic management and orbital debris mitigation strategies, making it a subject of ongoing study in space situational awareness.

Loading next visibility...
Identifier
34118, 1993-036KP
Orbit
LEO
Country
Flag of CISCIS
Related business
Manufacturer
Unknown
Mission
Spacecraft
Bus & Motor
Unknown
Mass
Unknown
Launch date (UTC)
1993-06-16 (33 years ago)
Launch vehicle
Unknown
Launch site
Plesetsk Missile And Space Complex (PKMTR)
Object type
Payload
Rocket body
Debris
Shape & HBR
Unknown shape, 0.1 m
Radar Cross Section
Medium (>0.1 m² and <1 m²)

Expand to show TLE details & history
Last TLE update: 18 hours ago

TLE from 18 hours ago
0 COSMOS 2251 DEB
1 34118U 93036KP  26237.00508745  .00016315  00000-0  11368-2 0  9994
2 34118  73.9462  88.1504 0053475 212.1266 307.8916 15.04245494930026
Epoch: 2026-08-25T00:07Z
TLE epoch observation values (Epoch: 2026-08-25T00:07:19.555Z)
Latitude
19.64394°
Longitude
-72.82282°
Altitude
533.409 km
Speed
7.61 km/s
True Right ascension
17h 29m 08s
True Declination
19° 31' 54"
Sunlit
Object was in daylight at epoch
Visualization orbit readout
Latitude
Unknown
Longitude
Unknown
Altitude
Unknown
Speed
Unknown
Apparent Right ascension
Unknown
Apparent Declination
Unknown
Sunlit
N/A
Visualization observer readout
Local Sidereal Time
09:26:20
Azimuth
Unknown
Elevation
Unknown
Doppler factor
Unknown
Orbital elements
Apogee altitude
588.435 km
Perigee altitude
514.324 km
Semi-major axis
6,929.517 km
Eccentricity
0.00535
Inclination
73.9462°
RAAN
88.1504°
Arg. of periapsis
212.1266°
True anomaly
307.40602°
Mean anomaly
307.8916°
Eccentric anomaly
307.64901°
Mean motion
3.76261 °/min
Orbital period
95.68 mins
BSTAR
0.0011368

Documentation

Showing up to 5 results
|